Time,TemperatureF,DewpointF,PressureIn,WindDirection,WindDirectionDegrees,WindSpeedMPH,WindSpeedGustMPH,Humidity,HourlyPrecipIn,Conditions,Clouds,dailyrainin,SoftwareType,DateUTC
2013-01-17 17:14:00,31.8,20.3,29.49,NNW,337,4.7,4.7,62,0.00,,,0.00,WUHU21623XXSP,2013-01-17 22:14:00,
2013-01-17 17:19:00,31.6,20.1,29.49,NNW,337,6.0,6.0,62,0.00,,,0.00,WUHU21623XXSP,2013-01-17 22:19:00,
2013-01-17 17:24:00,31.3,20.1,29.49,NW,315,6.0,6.9,63,0.00,,,0.00,WUHU21623XXSP,2013-01-17 22:24:00,
2013-01-17 17:29:00,30.9,20.1,29.50,NNW,337,4.0,6.9,64,0.00,,,0.00,WUHU21623XXSP,2013-01-17 22:29:00,
2013-01-17 17:34:00,30.9,20.1,29.50,North,0,6.0,6.0,64,0.00,,,0.00,WUHU21623XXSP,2013-01-17 22:34:00,
2013-01-17 17:39:00,30.4,19.8,29.50,North,0,7.6,7.6,64,0.00,,,0.00,WUHU21623XXSP,2013-01-17 22:39:00,
2013-01-17 17:44:00,30.2,19.2,29.51,NW,315,5.1,10.5,64,0.00,,,0.00,WUHU21623XXSP,2013-01-17 22:44:00,
2013-01-17 17:50:00,29.8,19.2,29.51,NW,315,6.7,10.5,64,0.00,,,0.00,WUHU21623XXSP,2013-01-17 22:50:00,
2013-01-17 17:55:00,29.7,18.9,29.52,NNW,337,7.8,13.2,64,0.00,,,0.00,WUHU21623XXSP,2013-01-17 22:55:00,
2013-01-17 18:00:00,29.7,19.3,29.52,NNW,337,7.8,13.2,65,0.00,,,0.00,WUHU21623XXSP,2013-01-17 23:00:00,
2013-01-17 18:05:00,29.1,18.8,29.52,NW,315,5.1,7.8,65,0.00,,,0.00,WUHU21623XXSP,2013-01-17 23:05:00,
2013-01-17 18:10:00,28.9,19.0,29.52,NNW,337,7.4,7.8,66,0.00,,,0.00,WUHU21623XXSP,2013-01-17 23:10:00,
2013-01-17 18:15:00,28.8,18.5,29.53,NW,315,3.6,7.4,66,0.00,,,0.00,WUHU21623XXSP,2013-01-17 23:15:00,
2013-01-17 18:20:00,28.6,18.7,29.53,NNW,337,5.8,5.8,66,0.00,,,0.00,WUHU21623XXSP,2013-01-17 23:20:00,
2013-01-17 18:25:00,28.2,19.0,29.54,NNW,337,12.1,12.1,66,0.00,,,0.00,WUHU21623XXSP,2013-01-17 23:25:00,
2013-01-17 18:30:00,28.2,18.3,29.54,NNW,337,4.5,12.1,66,0.00,,,0.00,WUHU21623XXSP,2013-01-17 23:30:00,
2013-01-17 18:35:00,28.0,18.1,29.54,NNW,337,4.5,12.1,66,0.00,,,0.00,WUHU21623XXSP,2013-01-17 23:35:00,
2013-01-17 18:40:00,28.0,18.5,29.54,NNW,337,4.5,4.5,67,0.00,,,0.00,WUHU21623XXSP,2013-01-17 23:40:00,
2013-01-17 18:45:00,27.7,18.1,29.55,NNW,337,6.3,6.5,67,0.00,,,0.00,WUHU21623XXSP,2013-01-17 23:45:00,
2013-01-17 18:50:00,27.5,18.1,29.55,NW,315,6.5,6.5,67,0.00,,,0.00,WUHU21623XXSP,2013-01-17 23:50:00,
2013-01-17 18:55:00,27.5,18.0,29.55,NW,315,6.5,6.5,67,0.00,,,0.00,WUHU21623XXSP,2013-01-17 23:55:00,
2013-01-17 19:00:00,27.1,17.6,29.55,North,0,8.1,8.1,67,0.00,,,0.00,WUHU21623XXSP,2013-01-18 00:00:00,
2013-01-17 19:05:00,27.1,17.6,29.56,North,0,8.1,8.1,67,0.00,,,0.00,WUHU21623XXSP,2013-01-18 00:05:00,
2013-01-17 19:10:00,27.1,17.6,29.56,North,0,8.1,8.1,67,0.00,,,0.00,WUHU21623XXSP,2013-01-18 00:10:00,
2013-01-17 19:15:00,27.1,17.6,29.56,North,0,8.1,8.1,67,0.00,,,0.00,WUHU21623XXSP,2013-01-18 00:15:00,
2013-01-17 19:20:00,27.1,17.6,29.56,North,0,8.1,8.1,67,0.00,,,0.00,WUHU21623XXSP,2013-01-18 00:20:00,
2013-01-17 19:52:00,25.9,16.7,29.58,NNW,337,2.9,2.9,68,0.00,,,0.00,WUHU21623XXSP,2013-01-18 00:52:00,
2013-01-17 19:57:00,25.7,16.5,29.59,North,0,2.5,2.9,68,0.00,,,0.00,WUHU21623XXSP,2013-01-18 00:57:00,
2013-01-17 20:02:00,25.5,16.4,29.59,North,0,7.8,7.8,68,0.00,,,0.00,WUHU21623XXSP,2013-01-18 01:02:00,
2013-01-17 20:07:00,25.5,16.4,29.60,NNW,337,6.9,7.8,68,0.00,,,0.00,WUHU21623XXSP,2013-01-18 01:07:00,
2013-01-17 20:12:00,25.3,16.2,29.60,NW,315,3.4,6.9,68,0.00,,,0.00,WUHU21623XXSP,2013-01-18 01:12:00,
2013-01-17 20:17:00,25.3,16.2,29.60,NNW,337,3.6,4.5,68,0.00,,,0.00,WUHU21623XXSP,2013-01-18 01:17:00,
2013-01-17 20:22:00,25.2,16.2,29.60,NNW,337,2.9,5.4,68,0.00,,,0.00,WUHU21623XXSP,2013-01-18 01:22:00,
2013-01-17 20:27:00,25.2,16.0,29.60,NNW,337,4.3,5.4,68,0.00,,,0.00,WUHU21623XXSP,2013-01-18 01:27:00,
2013-01-17 20:32:00,25.0,15.8,29.60,NNW,337,0.0,4.3,68,0.00,,,0.00,WUHU21623XXSP,2013-01-18 01:32:00,
2013-01-17 20:37:00,25.0,15.8,29.60,North,0,3.1,3.1,68,0.00,,,0.00,WUHU21623XXSP,2013-01-18 01:37:00,
2013-01-17 20:42:00,24.8,15.7,29.60,NNW,337,5.8,5.8,68,0.00,,,0.00,WUHU21623XXSP,2013-01-18 01:42:00,
2013-01-17 20:47:00,24.6,15.5,29.60,NW,315,2.5,5.8,68,0.00,,,0.00,WUHU21623XXSP,2013-01-18 01:47:00,
2013-01-17 20:52:00,24.6,15.5,29.60,North,0,3.6,4.9,68,0.00,,,0.00,WUHU21623XXSP,2013-01-18 01:52:00,
2013-01-17 20:57:00,24.6,15.5,29.61,NNW,337,3.6,4.9,68,0.00,,,0.00,WUHU21623XXSP,2013-01-18 01:57:00,
2013-01-17 21:02:00,24.4,15.0,29.60,NNW,337,3.4,3.8,67,0.00,,,0.00,WUHU21623XXSP,2013-01-18 02:02:00,
2013-01-17 21:07:00,24.4,15.0,29.61,NNW,337,0.0,3.8,67,0.00,,,0.00,WUHU21623XXSP,2013-01-18 02:07:00,
2013-01-17 21:12:00,24.4,15.3,29.61,NNW,337,2.5,3.6,68,0.00,,,0.00,WUHU21623XXSP,2013-01-18 02:12:00,
2013-01-17 21:18:00,24.3,15.2,29.61,North,0,2.5,2.5,68,0.00,,,0.00,WUHU21623XXSP,2013-01-18 02:18:00,
2013-01-17 21:23:00,24.1,15.3,29.61,NNW,337,0.0,2.5,69,0.00,,,0.00,WUHU21623XXSP,2013-01-18 02:23:00,
2013-01-17 21:28:00,24.1,15.3,29.61,NNW,337,0.0,2.0,69,0.00,,,0.00,WUHU21623XXSP,2013-01-18 02:28:00,
2013-01-17 21:33:00,24.1,15.3,29.60,NNW,337,0.0,0.0,69,0.00,,,0.00,WUHU21623XXSP,2013-01-18 02:33:00,
2013-01-17 21:38:00,23.9,15.2,29.61,NW,315,0.0,0.0,69,0.00,,,0.00,WUHU21623XXSP,2013-01-18 02:38:00,
2013-01-17 21:43:00,23.9,15.2,29.62,WNW,292,0.0,0.0,69,0.00,,,0.00,WUHU21623XXSP,2013-01-18 02:43:00,
2013-01-17 21:48:00,23.9,15.5,29.62,NW,315,0.0,0.0,70,0.00,,,0.00,WUHU21623XXSP,2013-01-18 02:48:00,
2013-01-17 21:53:00,23.7,15.4,29.61,NW,315,0.0,0.0,70,0.00,,,0.00,WUHU21623XXSP,2013-01-18 02:53:00,
2013-01-17 21:58:00,23.7,15.7,29.61,NNW,337,0.0,0.0,71,0.00,,,0.00,WUHU21623XXSP,2013-01-18 02:58:00,
2013-01-17 22:03:00,23.7,15.7,29.62,NNW,337,0.0,0.0,71,0.00,,,0.00,WUHU21623XXSP,2013-01-18 03:03:00,
2013-01-17 22:08:00,23.7,15.7,29.62,NW,315,0.0,0.0,71,0.00,,,0.00,WUHU21623XXSP,2013-01-18 03:08:00,
2013-01-17 22:13:00,23.5,15.5,29.62,NW,315,0.0,0.0,71,0.00,,,0.00,WUHU21623XXSP,2013-01-18 03:13:00,
2013-01-17 22:18:00,23.5,15.5,29.62,NW,315,0.0,0.0,71,0.00,,,0.00,WUHU21623XXSP,2013-01-18 03:18:00,
2013-01-17 22:23:00,23.5,15.5,29.62,WNW,292,0.0,0.0,71,0.00,,,0.00,WUHU21623XXSP,2013-01-18 03:23:00,
2013-01-17 22:28:00,23.5,15.5,29.62,WNW,292,0.0,0.0,71,0.00,,,0.00,WUHU21623XXSP,2013-01-18 03:28:00,
2013-01-17 22:33:00,23.5,15.5,29.62,WNW,292,0.0,0.0,71,0.00,,,0.00,WUHU21623XXSP,2013-01-18 03:33:00,
2013-01-17 22:38:00,23.5,15.5,29.63,WNW,292,0.0,0.0,71,0.00,,,0.00,WUHU21623XXSP,2013-01-18 03:38:00,
2013-01-17 22:43:00,23.5,15.5,29.62,WNW,292,0.0,0.0,71,0.00,,,0.00,WUHU21623XXSP,2013-01-18 03:43:00,
2013-01-17 22:48:00,23.4,15.3,29.62,WNW,292,0.0,0.0,71,0.00,,,0.00,WUHU21623XXSP,2013-01-18 03:48:00,
2013-01-17 22:53:00,23.2,15.2,29.62,WNW,292,0.0,0.0,71,0.00,,,0.00,WUHU21623XXSP,2013-01-18 03:53:00,
2013-01-17 22:58:00,23.0,15.0,29.62,West,270,0.0,0.0,71,0.00,,,0.00,WUHU21623XXSP,2013-01-18 03:58:00,
2013-01-17 23:03:00,22.8,14.8,29.63,West,270,0.0,0.0,71,0.00,,,0.00,WUHU21623XXSP,2013-01-18 04:03:00,
2013-01-17 23:08:00,22.6,14.7,29.63,West,270,0.0,0.0,71,0.00,,,0.00,WUHU21623XXSP,2013-01-18 04:08:00,
2013-01-17 23:13:00,22.3,14.6,29.63,West,270,0.0,0.0,72,0.00,,,0.00,WUHU21623XXSP,2013-01-18 04:13:00,
2013-01-17 23:18:00,22.3,14.6,29.63,West,270,0.0,0.0,72,0.00,,,0.00,WUHU21623XXSP,2013-01-18 04:18:00,
2013-01-17 23:23:00,21.9,14.3,29.63,West,270,0.0,0.0,72,0.00,,,0.00,WUHU21623XXSP,2013-01-18 04:23:00,
2013-01-17 23:28:00,21.9,14.6,29.63,West,270,0.0,0.0,73,0.00,,,0.00,WUHU21623XXSP,2013-01-18 04:28:00,
2013-01-17 23:33:00,21.9,14.6,29.63,West,270,0.0,0.0,73,0.00,,,0.00,WUHU21623XXSP,2013-01-18 04:33:00,
2013-01-17 23:38:00,21.9,14.9,29.63,West,270,0.0,0.0,74,0.00,,,0.00,WUHU21623XXSP,2013-01-18 04:38:00,
2013-01-17 23:43:00,21.9,14.9,29.64,West,270,0.0,0.0,74,0.00,,,0.00,WUHU21623XXSP,2013-01-18 04:43:00,
2013-01-17 23:48:00,21.7,14.7,29.64,West,270,0.0,0.0,74,0.00,,,0.00,WUHU21623XXSP,2013-01-18 04:48:00,
2013-01-17 23:53:00,21.7,14.7,29.63,West,270,0.0,0.0,74,0.00,,,0.00,WUHU21623XXSP,2013-01-18 04:53:00,
2013-01-17 23:58:00,21.7,14.7,29.63,WSW,247,0.0,0.0,74,0.00,,,0.00,WUHU21623XXSP,2013-01-18 04:58:00,